Location: Gura Luncii
(45.5167°N, 23.0667°E)
Time: 09:32:15
(UTC+00:00)

Daily predictions for brighter satellites

Satellite Brightness Start Highest point End
(mag) Time Altitude Azimuth Time Altitude Azimuth Time Altitude Azimuth
USA 305 2.7 18:15:40 10° NW 18:19:46 75° NNE 18:23:33 10° ESE
SL-08 R/B 4.0 18:21:14 10° NNE 18:25:36 33° E 18:29:51 10° SSE
NOSS 3-3 (C) 4.3 18:21:27 10° S 18:25:51 30° ESE 18:30:53 10° NE
COSMOS 2406 4.4 18:22:25 10° SSE 18:26:38 21° E 18:30:51 10° NE
DELTA 2 R/B (1) 4.1 18:21:35 10° SW 18:26:44 39° SSE 18:31:53 10° E
USA 306 2.7 18:25:18 10° WSW 18:28:52 57° NNW 18:31:30 10° NE
Meteor 1-31 Rocket 2.7 18:26:32 10° S 18:30:00 73° W 18:33:28 10° NNW
Terra 1.9 18:28:48 10° SSE 18:33:26 66° ENE 18:38:06 10° N
Cosmos 1980 Rocket 2.3 18:27:44 10° NNW 18:33:28 84° ENE 18:39:09 10° SSE
Cosmos 1850 Rocket 4.1 18:30:38 10° NNW 18:35:49 78° WSW 18:40:59 10° SSE
BREEZE-M DEB (TANK) 4.1 18:32:55 10° W 18:36:00 34° SSW 18:43:47 10° SE
MetOp-B 4.2 18:33:53 10° SSE 18:39:12 74° ENE 18:44:34 10° N
Helios 1A Rocket 2.1 18:36:45 10° NNE 18:39:54 73° ESE 18:43:02 10° S
CZ-4 R/B 1.7 18:36:36 10° S 18:40:10 57° W 18:43:46 10° NNW
CSL-04 Rocket 4.5 18:35:20 10° S 18:40:41 53° W 18:46:01 10° NNW
Sich 1 Rocket 3.8 18:36:25 10° SSW 18:40:46 72° W 18:45:08 10° N
Cosmos 2333 Rocket 3.7 18:36:30 10° N 18:41:04 24° NE 18:45:38 10° E
Cosmos 1743 2.1 18:39:08 10° N 18:42:08 62° E 18:45:07 10° SSE
Cosmos 2061 Rocket 4.5 18:38:24 10° SSE 18:44:09 41° E 18:49:59 10° NNE
CBERS 1 LM4 rocket 4.5 18:40:28 10° SSE 18:45:25 86° ENE 18:50:37 10° NNW
Cosmos 44 Rocket 4.3 18:41:34 10° SW 18:46:32 54° NW 18:51:38 10° NNE
Cosmos 1607 3.9 18:48:03 10° SSW 18:54:12 88° ESE 19:00:29 10° NE
Cosmos 1459 Rocket 4.4 18:49:13 10° SSW 18:55:24 68° W 19:01:32 10° N
Cosmos 1802 Rocket 4.0 18:49:59 10° S 18:56:11 88° W 19:02:22 10° N
Cosmos 1782 2.4 18:52:59 10° S 18:56:29 76° E 19:00:01 10° NNE
CZ-4B R/B 3.4 18:52:42 10° SSE 18:58:22 82° WSW 19:04:01 10° NNW
Cosmos 2360 Rocket 4.0 18:54:51 10° N 18:59:01 20° NE 19:03:09 10° E
Ariane Rocket 4.3 18:57:02 13° ESE 19:00:33 26° ENE 19:04:42 10° N
BREEZE-M DEB (TANK) 2.0 18:58:23 10° WSW 19:02:52 70° NNW 19:05:03 10° ENE
Spot 2 Rocket 3.5 19:01:12 12° SSE 19:05:48 72° ENE 19:10:50 10° N
ATLAS 3B R/B 4.0 19:04:50 10° NW 19:11:43 37° WSW 19:18:12 10° S
Cosmos 2219 Rocket 4.2 19:09:20 10° N 19:13:01 17° NE 19:16:41 10° E
Gbstr 26 Del rocket 4.0 19:10:04 10° WNW 19:14:51 40° SW 19:17:40 18° SSE
ERS-1 Rocket 3.9 19:10:14 10° S 19:15:02 46° W 19:19:51 10° NNW
Okean O Rocket 1.5 19:15:31 16° SSE 19:18:56 88° ENE 19:23:15 10° NNW
Cosmos 2151 3.6 19:15:22 10° N 19:19:12 36° ENE 19:21:10 23° SE
Cosmos 1455 Rocket 4.1 19:16:59 10° SSW 19:21:13 46° WNW 19:25:29 10° N
MOS 1-B 4.4 19:20:38 14° SSE 19:25:38 87° WSW 19:31:30 10° NNW
Cosmos 2233 Rocket 4.1 19:20:08 10° S 19:26:21 82° W 19:32:32 10° N
Cosmos 1461 2.8 19:23:16 10° SSW 19:26:48 45° ESE 19:30:21 10° NE
Cosmos 2237 4.3 19:22:46 10° NNW 19:28:32 80° WSW 19:32:37 20° SSE
Cosmos 1992 Rocket 3.9 19:24:10 10° SSW 19:29:22 87° ESE 19:34:36 10° NNE
CZ-2C R/B 3.6 19:30:01 19° ENE 19:30:16 20° ENE 19:32:22 10° NNE
Cosmos 2322 Rocket 3.3 19:25:22 10° N 19:30:28 33° NE 19:33:58 18° ESE
CZ-4B R/B 3.8 19:27:58 23° SE 19:30:38 47° ENE 19:35:15 10° N
Cosmos 2082 Rocket 2.8 19:26:47 10° SW 19:32:26 61° WNW 19:38:06 10° NNE
Cosmos 1544 Rocket 3.5 19:31:34 20° S 19:34:31 65° E 19:38:49 10° NNE
Cosmos 2369 4.1 19:30:31 10° NNW 19:36:10 62° WSW 19:40:17 19° S
Cosmos 1437 Rocket 2.6 19:36:11 32° SSE 19:37:32 54° E 19:41:03 10° NNE
Cosmos 2228 3.9 19:34:27 10° SSW 19:38:23 45° WNW 19:42:21 10° N
Okean-O 3.0 19:35:08 17° S 19:38:25 59° WSW 19:42:46 10° NNW
Cosmos 909 Rocket 4.2 19:32:19 10° SW 19:38:41 78° NW 19:45:10 10° NNE
USA 186 2.2 19:38:59 27° SSW 19:40:04 43° W 19:42:43 10° NNW
IRS-1C Rocket 4.3 19:39:14 25° SE 19:42:12 59° ENE 19:47:24 10° N
USA 305 4.2 19:41:37 10° WNW 19:44:40 21° SW 19:45:56 18° SSW
NOSS 3-3 (A) 4.2 19:39:52 10° SW 19:44:59 64° NW 19:51:08 10° NE
ISS -1.7 19:47:22 10° WNW 19:50:20 29° N 19:53:18 10° NE
Cosmos 1758 Rocket 3.6 19:48:42 10° NNW 19:53:06 75° W 19:55:25 28° S
Cosmos 1486 Rocket 4.4 19:49:33 10° NNW 19:54:42 51° ENE 19:57:02 30° SE
Cosmos 2278 3.8 19:49:48 10° NNW 19:55:30 66° ENE 19:58:19 30° SE
CZ-4B R/B 2.4 19:54:43 44° S 19:55:40 81° WSW 19:59:07 10° NNW
USA 290 4.1 20:01:15 19° ENE 20:01:15 19° ENE 20:02:33 10° NE
SL-16 R/B 2.1 19:54:51 10° NNW 20:00:34 89° ENE 20:03:19 32° SSE
Cosmos 1825 Rocket 4.1 20:02:40 10° N 20:06:50 43° ENE 20:07:46 37° ESE
COSMOS 2406 3.7 20:04:41 10° SW 20:10:23 63° WNW 20:16:06 10° NNE
Terra 4.3 20:08:48 10° WSW 20:11:24 15° W 20:14:02 10° NW
DELTA 2 R/B (1) 3.9 20:07:18 10° WSW 20:12:36 45° S 20:13:54 38° SSE
Cosmos 1602 Rocket 3.6 20:13:15 10° NNW 20:17:33 73° W 20:18:56 42° S
Cosmos 540 Rocket 3.9 20:18:42 38° ESE 20:19:19 39° ESE 20:24:06 10° NE
Cosmos 2058 Rocket 4.5 20:20:44 23° E 20:20:44 23° E 20:23:56 10° NE
Cosmos 1933 4.1 20:19:19 25° SW 20:21:07 46° WNW 20:24:48 10° N
Cosmos 2333 Rocket 2.3 20:20:12 10° NNW 20:25:52 67° WSW 20:28:05 37° S
NOSS 3-4 (A) 3.8 20:24:15 10° NW 20:31:04 87° NE 20:34:49 34° SE
Cosmos 1833 4.3 20:29:39 42° SSE 20:31:11 56° ESE 20:36:41 10° NE
NOSS 3-4 (C) 3.8 20:24:53 10° NW 20:31:43 86° NE 20:35:28 35° SE
Cosmos 1464 Rocket 3.9 20:28:57 30° S 20:32:11 87° W 20:38:24 10° N
Geosat 4.0 20:28:47 10° NE 20:33:43 57° ESE 20:34:38 49° SSE
Cosmos 1805 3.3 20:32:06 10° NNW 20:35:11 51° W 20:35:11 51° W
ARIANE 5 R/B 4.5 20:34:30 18° E 20:35:26 19° ENE 20:38:34 10° NNE
Cosmos 2098 Rocket 3.5 20:35:17 32° SSW 20:37:22 62° W 20:41:39 10° N
Ariane Rocket 3.8 20:37:06 29° SSW 20:39:11 44° W 20:44:01 10° NNW
Cosmos 1076 Rocket 3.3 20:38:00 10° N 20:42:16 75° E 20:42:36 70° SE
Cosmos 2360 Rocket 2.1 20:38:00 10° NNW 20:43:42 82° WSW 20:45:21 48° SSE
USA 234 4.1 20:40:08 10° ENE 20:44:46 29° ESE 20:44:46 29° ESE
Cosmos 1536 3.8 20:44:00 10° N 20:46:54 31° ENE 20:46:54 31° ENE
Cosmos 2333 4.1 20:43:05 10° NNW 20:48:51 88° WSW 20:50:27 50° SSE
Cosmos 1606 Rocket 3.9 20:49:17 43° SW 20:50:22 58° W 20:54:39 10° N
Helios 1A 2.9 20:47:38 10° NNE 20:51:11 62° ENE 20:51:11 62° ENE
Helios 1B rocket 3.0 20:52:03 37° NE 20:52:03 37° NE 20:54:52 10° N
Okean 1 3.4 20:52:41 58° WNW 20:52:41 58° WNW 20:56:10 10° N
Cosmos 1092 Rocket 4.1 20:47:43 10° N 20:53:52 64° E 20:55:38 45° SE
Cosmos 1763 Rocket 3.4 20:55:34 46° SSW 20:57:11 87° WNW 21:02:30 10° NNE
Cosmos 2219 Rocket 2.1 20:52:10 10° NNW 20:57:52 82° ENE 20:59:14 54° SE
Cosmos 1726 Rocket 3.6 20:59:18 59° WSW 20:59:38 62° W 21:03:39 10° N
Cosmos 990 Rocket 3.8 21:01:51 10° NNW 21:07:02 84° WSW 21:07:49 65° S
Cosmos 1470 4.4 21:05:19 10° NNE 21:07:06 21° NE 21:07:06 21° NE
RESURS DK-1 3.9 21:05:28 10° N 21:08:46 24° NE 21:09:14 24° ENE
Cosmos 2034 Rocket 4.2 21:07:11 36° SSW 21:09:52 70° W 21:16:14 10° N
BREEZE-M DEB (TANK) 3.8 21:03:50 10° W 21:13:21 76° N 21:18:14 10° E
Cosmos 2322 Rocket 2.8 21:09:16 10° NW 21:14:37 44° WSW 21:15:45 39° SW
Cosmos 1975 4.3 21:14:50 10° NNE 21:17:20 26° NE 21:17:20 26° NE
Meteor 2-2 Rocket 4.2 21:23:51 55° SSW 21:25:09 81° W 21:30:57 10° N
Meteor 1-26 Rocket 4.4 21:25:04 47° SW 21:26:32 66° WNW 21:32:11 10° N
ISS -2.1 21:24:36 10° NW 21:27:26 34° N 21:27:26 34° N
Meteor 2-9 Rocket 4.5 21:22:35 10° N 21:27:51 52° ENE 21:28:38 48° ESE
Cosmos 841 Rocket 4.0 21:29:05 44° E 21:29:05 44° E 21:33:43 10° NNE
Cosmos-2242 3.4 21:30:18 52° WNW 21:30:18 52° WNW 21:34:19 10° N
Cosmos 2279 Rocket 4.0 21:29:53 56° SSE 21:31:09 70° E 21:37:23 10° NNE
Cosmos 44 3.3 21:26:52 10° NW 21:32:18 84° NE 21:32:52 71° SE
Cosmos 2237 Rocket 3.9 21:28:02 10° N 21:32:47 26° NE 21:35:41 18° E
CZ-2C R/B 3.6 21:29:59 10° NNE 21:34:12 74° ENE 21:34:12 74° ENE
Cosmos 1634 Rocket 3.9 21:32:56 52° SSW 21:34:33 79° W 21:40:47 10° N
Meteor 1-11 Rocket 4.4 21:32:30 10° N 21:37:52 42° ENE 21:38:54 38° E
CZ-2C R/B 4.0 21:37:19 24° E 21:38:48 27° ENE 21:43:08 10° N
COSMOS 2428 2.9 21:36:02 10° NNW 21:41:42 62° ENE 21:42:51 51° ESE
SL-16 R/B 4.3 21:40:59 10° WNW 21:43:47 14° W 21:45:09 13° WSW
ACS3 Solar Sail 3.8 21:41:06 10° NE 21:43:51 13° E 21:45:00 13° E
Cosmos 2227 Rocket 4.3 21:44:30 13° E 21:44:30 13° E 21:46:30 10° ENE
SL-08 ROCKET BODY 4.4 21:43:41 10° N 21:49:53 82° W 21:51:03 61° S
Cosmos 372 Rocket 3.8 21:45:19 10° NNW 21:50:26 79° WSW 21:50:33 78° SW
Cosmos 1271 Rocket 4.0 21:52:42 34° N 21:52:42 34° N 21:54:48 10° N
Cosmos 2221 2.8 21:54:54 60° NNE 21:54:54 60° NNE 21:58:24 10° N
Meteor 1-27 Rocket 4.4 21:56:56 40° ESE 21:57:27 41° E 22:02:48 10° NNE
Cosmos 2058 Rocket 4.2 21:57:50 32° W 21:58:10 33° WNW 22:02:06 10° N
Aureole 1 Rocket 4.3 21:54:05 10° NNW 21:59:48 55° WSW 22:00:52 49° SW
GP-B 3.6 21:57:46 10° N 22:01:32 49° ENE 22:01:32 49° ENE
Cosmos 2266 Rocket 4.0 21:56:08 10° N 22:02:10 67° E 22:03:14 56° SE
Meteor 1-14 Rocket 4.0 21:57:55 10° NNW 22:03:28 76° W 22:03:59 70° SW
Spot 4 4.1 22:07:43 58° W 22:07:43 58° W 22:12:17 10° NNW
Cosmos 1937 Rocket 3.3 22:03:21 10° NNW 22:08:32 82° ENE 22:08:43 80° ESE
ARIANE 5 R/B 3.2 22:11:52 47° WNW 22:11:52 47° WNW 22:15:43 10° NNW
ALOS 2 3.0 22:13:10 54° WNW 22:13:10 54° WNW 22:16:59 10° NNW
ARGOS Delta rocket 4.1 22:09:23 10° N 22:14:31 68° WNW 22:15:05 63° WSW
Cosmos 2297 Rocket 2.3 22:17:12 57° ESE 22:17:17 57° ESE 22:22:50 10° NNE
CZ-2C R/B 3.2 22:14:46 10° NNE 22:20:32 72° ESE 22:21:10 66° SE
Cosmos 1655 Rocket 4.5 22:19:00 10° N 22:25:04 51° ENE 22:26:42 41° ESE
Cosmos 2360 Rocket 4.4 22:24:36 10° WNW 22:26:43 12° W 22:27:05 12° W
Cosmos 2322 3.9 22:21:38 10° NW 22:27:11 55° WSW 22:27:16 55° WSW
USA 234 3.2 22:22:39 10° NE 22:29:14 86° NW 22:32:05 37° WSW
PSLV R/B 4.3 22:30:44 10° N 22:34:42 45° WNW 22:34:42 45° WNW
Alouette 2 Rocket 4.2 22:31:52 10° N 22:35:30 49° ENE 22:35:30 49° ENE
SeaSat 1 3.3 22:34:43 36° E 22:36:07 45° NE 22:40:47 10° NNW
Meteor 2-10 Rocket 4.4 22:34:17 10° N 22:39:37 47° ENE 22:40:59 39° ESE
Cosmos 1898 Rocket 4.2 22:35:18 10° NW 22:39:45 39° W 22:39:45 39° W
BlueWalker 3 4.4 22:43:32 14° ENE 22:43:32 14° ENE 22:44:07 10° ENE
Cosmos 1766 Rocket 3.8 22:36:43 10° N 22:40:32 63° NE 22:40:32 63° NE
Cosmos 2219 Rocket 4.1 22:37:48 10° WNW 22:40:55 16° W 22:40:55 16° W
RESURS DK-1 4.1 22:42:34 10° NW 22:44:26 23° WNW 22:44:26 23° WNW
MetOp-A 4.3 22:53:43 49° W 22:53:43 49° W 22:58:03 10° NNW
Cosmos 1814 Rocket 4.0 22:59:05 61° ESE 22:59:15 62° ESE 23:04:25 10° NNE
NOSS 0 Rocket 4.2 22:53:58 10° NW 22:59:51 48° WSW 23:00:06 48° WSW
Lacrosse 4 Rocket 1.9 23:01:08 52° NE 23:01:08 52° NE 23:04:18 10° NNE
SL-16 R/B 3.5 22:59:14 10° NNW 23:04:30 36° NE 23:08:40 15° ESE
IDEFIX/ARIANE 42P 4.2 23:07:22 10° NE 23:11:22 22° E 23:12:47 20° ESE
Cosmos 1151 Rocket 4.0 23:15:33 35° E 23:15:38 36° E 23:19:34 10° NNE
CZ-4C R/B 4.1 23:13:33 10° N 23:15:55 42° N 23:15:55 42° N
Cosmos 2237 Rocket 2.2 23:11:38 10° NNW 23:17:13 58° WSW 23:17:27 58° WSW
CZ-2C R/B 3.1 23:18:46 44° W 23:18:48 44° W 23:23:48 10° NNW
Cosmos 1980 3.9 23:15:46 10° NW 23:21:13 50° WSW 23:21:16 50° WSW
CENTAUR R/B 4.4 23:20:18 10° ESE 23:21:52 11° E 23:23:31 10° E
Meteor 2-4 Rocket 3.9 23:23:24 49° WSW 23:24:12 53° WNW 23:29:36 10° N
In-Cosmos 22 4.3 23:23:38 55° SSE 23:24:39 67° E 23:30:15 10° NNE
PSLV R/B 4.5 23:21:01 10° NNE 23:24:23 47° ENE 23:24:23 47° ENE
COSMOS 2428 4.2 23:21:12 10° NW 23:24:48 21° W 23:24:48 21° W
ACS3 Solar Sail 1.6 23:21:02 10° NNE 23:27:03 84° ESE 23:28:30 55° S
Nadezhda 2 Rocket 4.5 23:20:58 10° N 23:27:09 77° E 23:29:08 45° SSE
Cosmos 2227 Rocket 2.1 23:26:17 63° SSW 23:27:15 85° ESE 23:32:57 10° NNE
Cosmos 158 Rocket 4.1 23:29:48 56° WSW 23:30:40 66° WNW 23:36:00 10° NNE
Okean 3 Rocket 3.5 23:26:15 10° N 23:30:47 87° E 23:30:53 85° SE
Cosmos 1238 Rocket 4.4 23:37:43 25° WNW 23:37:43 25° WNW 23:40:59 10° NNW
Cosmos 1553 Rocket 4.0 23:35:59 50° S 23:37:50 90° E 23:44:17 10° N
Cosmos 192 4.4 23:33:27 10° NNW 23:38:13 57° WSW 23:38:13 57° WSW
Cosmos 1842 Rocket 4.0 23:38:31 48° WNW 23:38:31 48° WNW 23:42:45 10° N
Cosmos 2263 Rocket 2.2 23:37:50 55° SSE 23:38:54 68° ESE 23:44:27 10° NNE
BREEZE-M DEB (TANK) 3.5 23:26:52 10° WSW 23:41:06 90° S 23:45:16 10° ENE
MSX 4.5 23:41:52 10° NNE 23:47:27 47° E 23:49:34 33° SSE
Cosmos 1805 Rocket 3.3 23:46:07 10° N 23:50:28 86° ENE 23:50:46 77° SSE
Iridium 4 Rocket 4.2 23:51:28 40° WSW 23:52:32 44° W 23:58:05 10° N
SL-08 R/B 4.4 23:46:17 10° NNW 23:52:36 73° W 23:54:33 46° SSW
Sich 1 3.5 23:49:07 10° NNW 23:52:43 45° WNW 23:52:43 45° WNW
Cosmos 1743 Rocket 3.9 23:50:56 10° N 23:55:11 57° ENE 23:56:11 44° SE
